Tracking 17694 objects as of 29-May-2016
HD Live streaming from Space Station
objects crossing your sky now

THORAD AGENA D DEB

Track THORAD AGENA D DEB now!
10-day predictions


NORAD ID: 4768
Int'l Code: 1970-025DN
Perigee: 986.5 km
Apogee: 1,030.2 km
Inclination: 100.2 °
Period: 105.1 minutes
Semi major axis: 7379 km
RCS: 0.064 m2 (small)
Launch date: April 8, 1970
Source: United States (US)
Launch site: AIR FORCE WESTERN TEST RANGE (AFWTR)

Note: This is SATELLITE DEBRIS
Your satellite tracking list
Your tracking list is empty





NASA's NSSDC Master Catalog

Two Line Element Set (TLE):
1 04768U 70025DN  16149.88973050 -.00000022  00000-0  32127-4 0  9994
2 04768 100.1690 297.8421 0029614 304.0867 210.0019 13.69536929295605
Source of the keplerian elements: AFSPC

N2YO: 497